Location: London
(51.5074°N, 0.1278°W)
Time: 22:45:41
(UTC+01:00)

DELFI C3 - Pass Details

Date: 30 September 2020
Orbit: 535 x 549 km, 97.4° (Epoch: 22 October)

Event Time Altitude Azimuth Distance (km) Brightness Sun altitude
Exits shadow 20:00:03 19° 127° (SE) 1,335 ? -13.3°
Maximum altitude 20:02:24 38° 69° (ENE) 840 ? -13.7°
Drops below altitude 10° 20:06:05 10° 0° (N) 1,830 ? -14.2°
Sets 20:08:19 0° 353° (N) 2,731 ? -14.6°
